WAT225 NFFN-YSSY

Flight info

Callsign WAT225
Flight time 4h 8m
Altitude 38000
Route ECHO MI DCT VIBEX G224 NF B450 TEKEP/N0460F400 B450 LHI H258 RIKNI N774 MARLN
Aircraft A343/H-SDE2E3FGHIJ4J5M1RWXY/LB1D1

Departure

Time 2026-04-24 12:07
Airport Nadi International Airport (NFFN)

Arrival

Time 2026-04-24 16:15
Airport Sydney Kingsford Smith International Airport (YSSY)
Time Latitude Longitude Altitude Speed Heading
2026-04-24 11:51 -17.75186 177.45008 51 ft 0 kts 104°
2026-04-24 12:00 -17.75185 177.45006 51 ft 2 kts 104°
2026-04-24 12:00 -17.75180 177.44981 45 ft 4 kts 102°
2026-04-24 12:00 -17.75176 177.44958 46 ft 4 kts 70°
2026-04-24 12:00 -17.75192 177.44940 45 ft 4 kts 21°
2026-04-24 12:01 -17.75207 177.44935 45 ft 0 kts 14°
2026-04-24 12:03 -17.75206 177.44935 45 ft 1 kts 14°
2026-04-24 12:03 -17.75184 177.44941 45 ft 6 kts 14°
2026-04-24 12:03 -17.75129 177.44955 51 ft 10 kts 14°
2026-04-24 12:04 -17.75062 177.44949 50 ft 9 kts 319°
2026-04-24 12:04 -17.75036 177.44887 51 ft 10 kts 288°
2026-04-24 12:04 -17.75014 177.44812 47 ft 11 kts 286°
2026-04-24 12:04 -17.75009 177.44733 51 ft 10 kts 240°
2026-04-24 12:05 -17.75089 177.44663 48 ft 33 kts 218°
2026-04-24 12:05 -17.75350 177.44451 51 ft 40 kts 218°
2026-04-24 12:05 -17.75439 177.44378 51 ft 0 kts 218°
2026-04-24 12:05 -17.75444 177.44375 49 ft 0 kts 218°
2026-04-24 12:06 -17.75446 177.44372 50 ft 0 kts 218°
2026-04-24 12:06 -17.75519 177.44314 51 ft 42 kts 217°
2026-04-24 12:06 -17.75924 177.43998 51 ft 101 kts 218°
2026-04-24 12:06 -17.76618 177.43436 51 ft 149 kts 217°
2026-04-24 12:07 -17.77496 177.42716 333 ft 166 kts 217°
2026-04-24 12:07 -17.78431 177.41958 883 ft 173 kts 215°
2026-04-24 12:07 -17.79410 177.41166 1421 ft 186 kts 214°
2026-04-24 12:07 -17.80508 177.40285 1711 ft 212 kts 213°
2026-04-24 12:08 -17.81773 177.39264 1908 ft 247 kts 214°
2026-04-24 12:08 -17.83186 177.38107 2426 ft 266 kts 214°
2026-04-24 12:08 -17.84671 177.36891 3183 ft 274 kts 214°
2026-04-24 12:08 -17.86187 177.35654 4087 ft 276 kts 216°
2026-04-24 12:09 -17.87698 177.34419 4869 ft 275 kts 217°
2026-04-24 12:09 -17.89220 177.33177 5368 ft 279 kts 217°
2026-04-24 12:09 -17.90717 177.31850 5760 ft 286 kts 221°
2026-04-24 12:09 -17.92190 177.30401 6206 ft 291 kts 223°
2026-04-24 12:10 -17.93623 177.28905 6740 ft 291 kts 225°
2026-04-24 12:10 -17.95050 177.27389 7227 ft 294 kts 225°
2026-04-24 12:10 -17.96498 177.25848 7996 ft 297 kts 225°
2026-04-24 12:11 -17.99449 177.22739 9580 ft 304 kts 226°
2026-04-24 12:11 -18.00951 177.21171 10331 ft 308 kts 226°
2026-04-24 12:11 -18.02516 177.19540 10672 ft 327 kts 227°
2026-04-24 12:11 -18.04177 177.17810 10941 ft 345 kts 226°
2026-04-24 12:12 -18.05920 177.15998 11292 ft 359 kts 226°
2026-04-24 12:12 -18.07716 177.14133 11796 ft 367 kts 226°
2026-04-24 12:12 -18.09541 177.12240 12423 ft 370 kts 226°
2026-04-24 12:12 -18.11384 177.10327 12996 ft 375 kts 226°
2026-04-24 12:13 -18.13251 177.08389 13620 ft 379 kts 226°
2026-04-24 12:13 -18.15135 177.06429 14175 ft 383 kts 226°
2026-04-24 12:13 -18.17037 177.04451 14746 ft 386 kts 226°
2026-04-24 12:13 -18.18955 177.02454 15271 ft 390 kts 226°
2026-04-24 12:14 -18.20887 177.00442 15858 ft 393 kts 226°
2026-04-24 12:14 -18.22838 176.98413 16434 ft 396 kts 226°
2026-04-24 12:14 -18.24923 176.96500 17015 ft 400 kts 219°
2026-04-24 12:14 -18.27157 176.94718 17585 ft 404 kts 218°
2026-04-24 12:15 -18.29448 176.92982 18162 ft 409 kts 217°
2026-04-24 12:15 -18.31795 176.91256 18598 ft 414 kts 217°
2026-04-24 12:15 -18.34143 176.89552 19118 ft 416 kts 217°
2026-04-24 12:15 -18.36536 176.87822 19599 ft 419 kts 216°
2026-04-24 12:16 -18.38946 176.86076 20104 ft 422 kts 217°
2026-04-24 12:16 -18.41371 176.84312 20583 ft 424 kts 217°
2026-04-24 12:16 -18.43803 176.82538 21099 ft 427 kts 217°
2026-04-24 12:16 -18.46246 176.80751 21576 ft 429 kts 217°
2026-04-24 12:17 -18.48708 176.78948 22042 ft 432 kts 217°
2026-04-24 12:17 -18.51184 176.77133 22505 ft 435 kts 217°
2026-04-24 12:17 -18.53677 176.75305 22952 ft 438 kts 217°
2026-04-24 12:17 -18.56185 176.73466 23387 ft 441 kts 217°
2026-04-24 12:18 -18.58714 176.71610 23801 ft 444 kts 217°
2026-04-24 12:18 -18.61251 176.69748 24173 ft 446 kts 217°
2026-04-24 12:18 -18.63806 176.67873 24555 ft 448 kts 218°
2026-04-24 12:18 -18.66372 176.65989 24936 ft 450 kts 218°
2026-04-24 12:19 -18.68950 176.64096 25325 ft 452 kts 218°
2026-04-24 12:19 -18.71533 176.62197 25706 ft 454 kts 218°
2026-04-24 12:19 -18.74132 176.60287 26079 ft 456 kts 218°
2026-04-24 12:19 -18.76741 176.58368 26478 ft 457 kts 218°
2026-04-24 12:20 -18.79351 176.56448 26898 ft 458 kts 218°
2026-04-24 12:20 -18.81967 176.54524 27269 ft 460 kts 218°
2026-04-24 12:20 -18.84595 176.52588 27614 ft 462 kts 218°
2026-04-24 12:20 -18.86342 176.51301 27837 ft 463 kts 218°
2026-04-24 12:21 -18.88991 176.49349 28179 ft 465 kts 218°
2026-04-24 12:21 -18.91650 176.47389 28519 ft 467 kts 218°
2026-04-24 12:21 -18.94317 176.45423 28836 ft 468 kts 218°
2026-04-24 12:21 -18.96993 176.43449 29168 ft 470 kts 218°
2026-04-24 12:22 -18.99681 176.41466 29475 ft 472 kts 218°
2026-04-24 12:22 -19.02377 176.39476 29783 ft 474 kts 218°
2026-04-24 12:22 -19.05086 176.37475 30076 ft 476 kts 219°
2026-04-24 12:22 -19.07800 176.35462 30325 ft 478 kts 219°
2026-04-24 12:23 -19.10520 176.33440 30624 ft 478 kts 219°
2026-04-24 12:23 -19.13240 176.31418 30920 ft 478 kts 219°
2026-04-24 12:23 -19.15962 176.29393 31155 ft 480 kts 219°
2026-04-24 12:23 -19.18695 176.27359 31378 ft 481 kts 219°
2026-04-24 12:24 -19.21440 176.25317 31606 ft 483 kts 219°
2026-04-24 12:24 -19.24187 176.23273 31897 ft 483 kts 219°
2026-04-24 12:24 -19.26929 176.21233 32232 ft 481 kts 219°
2026-04-24 12:24 -19.29667 176.19196 32563 ft 480 kts 219°
2026-04-24 12:25 -19.32391 176.17168 32900 ft 478 kts 219°
2026-04-24 12:25 -19.35107 176.15144 33217 ft 477 kts 219°
2026-04-24 12:25 -19.37820 176.13122 33529 ft 476 kts 219°
2026-04-24 12:25 -19.40525 176.11105 33833 ft 475 kts 219°
2026-04-24 12:26 -19.43224 176.09091 34142 ft 474 kts 219°
2026-04-24 12:26 -19.45911 176.07085 34448 ft 472 kts 219°
2026-04-24 12:26 -19.48594 176.05082 34702 ft 471 kts 219°
2026-04-24 12:26 -19.51270 176.03083 34923 ft 471 kts 219°
2026-04-24 12:27 -19.53947 176.01081 35134 ft 470 kts 219°
2026-04-24 12:27 -19.56621 175.99081 35364 ft 470 kts 219°
2026-04-24 12:27 -19.59291 175.97083 35580 ft 470 kts 219°
2026-04-24 12:27 -19.61924 175.95114 35791 ft 469 kts 219°
2026-04-24 12:28 -19.64587 175.93120 35995 ft 469 kts 219°
2026-04-24 12:28 -19.67251 175.91125 36206 ft 468 kts 219°
2026-04-24 12:28 -19.69912 175.89131 36402 ft 468 kts 219°
2026-04-24 12:28 -19.72571 175.87138 36607 ft 468 kts 219°
2026-04-24 12:29 -19.75230 175.85145 36819 ft 467 kts 219°
2026-04-24 12:29 -19.77886 175.83160 37028 ft 467 kts 220°
2026-04-24 12:29 -19.80533 175.81175 37238 ft 466 kts 220°
2026-04-24 12:29 -19.83179 175.79187 37410 ft 466 kts 220°
2026-04-24 12:30 -19.85821 175.77199 37553 ft 466 kts 220°
2026-04-24 12:30 -19.88469 175.75206 37736 ft 466 kts 220°
2026-04-24 12:30 -19.91111 175.73218 37906 ft 465 kts 220°
2026-04-24 12:30 -19.93755 175.71228 38030 ft 466 kts 220°
2026-04-24 12:31 -19.96408 175.69230 38040 ft 469 kts 220°
2026-04-24 12:31 -20.01724 175.65228 38040 ft 467 kts 220°
2026-04-24 12:32 -20.07021 175.61238 38040 ft 466 kts 220°
2026-04-24 12:32 -20.12310 175.57250 38045 ft 465 kts 220°
2026-04-24 12:33 -20.17584 175.53270 38046 ft 464 kts 220°
2026-04-24 12:33 -20.22852 175.49289 38047 ft 464 kts 220°
2026-04-24 12:34 -20.28119 175.45306 38053 ft 464 kts 220°
2026-04-24 12:34 -20.33384 175.41322 38053 ft 465 kts 220°
2026-04-24 12:35 -20.38669 175.37317 38053 ft 467 kts 220°
2026-04-24 12:35 -20.43971 175.33298 38061 ft 468 kts 221°
2026-04-24 12:36 -20.49287 175.29266 38061 ft 469 kts 221°
2026-04-24 12:36 -20.54605 175.25228 38066 ft 469 kts 221°
2026-04-24 12:37 -20.59927 175.21184 38068 ft 469 kts 221°
2026-04-24 12:37 -20.65207 175.17168 38066 ft 469 kts 221°
2026-04-24 12:38 -20.70526 175.13118 38071 ft 469 kts 221°
2026-04-24 12:38 -20.75840 175.09069 38075 ft 470 kts 221°
2026-04-24 12:39 -20.86504 175.00930 38070 ft 473 kts 221°
2026-04-24 12:40 -20.91857 174.96840 38072 ft 473 kts 221°
2026-04-24 12:40 -20.97217 174.92742 38069 ft 473 kts 221°
2026-04-24 12:41 -21.02570 174.88646 38069 ft 473 kts 222°
2026-04-24 12:41 -21.07933 174.84538 38077 ft 473 kts 222°
2026-04-24 12:42 -21.13287 174.80431 38069 ft 474 kts 222°
2026-04-24 12:42 -21.18653 174.76313 38069 ft 474 kts 222°
2026-04-24 12:43 -21.24020 174.72191 38069 ft 474 kts 222°
2026-04-24 12:43 -21.29379 174.68071 38069 ft 474 kts 222°
2026-04-24 12:44 -21.34747 174.63938 38070 ft 476 kts 222°
2026-04-24 12:44 -21.40138 174.59784 38069 ft 478 kts 222°
2026-04-24 12:45 -21.45539 174.55621 38073 ft 478 kts 222°
2026-04-24 12:45 -21.50899 174.51485 38069 ft 478 kts 222°
2026-04-24 12:46 -21.56296 174.47317 38072 ft 478 kts 222°
2026-04-24 12:46 -21.61694 174.43144 38072 ft 478 kts 222°
2026-04-24 12:47 -21.67088 174.38969 38069 ft 478 kts 222°
2026-04-24 12:47 -21.72481 174.34792 38072 ft 478 kts 223°
2026-04-24 12:48 -21.77891 174.30595 38077 ft 480 kts 223°
2026-04-24 12:48 -21.83320 174.26382 38073 ft 480 kts 223°
2026-04-24 12:49 -21.88733 174.22179 38080 ft 479 kts 223°
2026-04-24 12:49 -21.94143 174.17973 38080 ft 479 kts 223°
2026-04-24 12:50 -21.99550 174.13764 38078 ft 479 kts 223°
2026-04-24 12:50 -22.04953 174.09555 38087 ft 479 kts 224°
2026-04-24 12:51 -22.10326 174.05374 38078 ft 475 kts 224°
2026-04-24 12:51 -22.15674 174.01202 38079 ft 474 kts 224°
2026-04-24 12:52 -22.21013 173.97024 38077 ft 474 kts 224°
2026-04-24 12:52 -22.26354 173.92846 38081 ft 474 kts 224°
2026-04-24 12:53 -22.31694 173.88667 38081 ft 473 kts 223°
2026-04-24 12:53 -22.36997 173.84517 38089 ft 471 kts 223°
2026-04-24 12:54 -22.42344 173.80317 38080 ft 479 kts 223°
2026-04-24 12:54 -22.47770 173.76053 38092 ft 484 kts 223°
2026-04-24 12:55 -22.53180 173.71814 38087 ft 476 kts 223°
2026-04-24 12:55 -22.58484 173.67651 38087 ft 473 kts 223°
2026-04-24 12:56 -22.63810 173.63455 38088 ft 474 kts 223°
2026-04-24 12:56 -22.69146 173.59246 38093 ft 477 kts 224°
2026-04-24 12:57 -22.74535 173.54991 38088 ft 481 kts 223°
2026-04-24 12:57 -22.79949 173.50718 38086 ft 482 kts 223°
2026-04-24 12:58 -22.85378 173.46430 38096 ft 483 kts 223°
2026-04-24 12:58 -22.90816 173.42130 38097 ft 484 kts 223°
2026-04-24 12:59 -22.96251 173.37828 38098 ft 484 kts 223°
2026-04-24 12:59 -23.01686 173.33522 38096 ft 483 kts 224°
2026-04-24 13:00 -23.07101 173.29225 38096 ft 482 kts 224°
2026-04-24 13:00 -23.12517 173.24922 38103 ft 482 kts 224°
2026-04-24 13:01 -23.17906 173.20637 38101 ft 482 kts 224°
2026-04-24 13:01 -23.23318 173.16330 38103 ft 482 kts 224°
2026-04-24 13:02 -23.28722 173.12026 38107 ft 479 kts 225°
2026-04-24 13:02 -23.34078 173.07761 38108 ft 475 kts 225°
2026-04-24 13:03 -23.39405 173.03506 38112 ft 475 kts 225°
2026-04-24 13:03 -23.44732 172.99245 38111 ft 475 kts 225°
2026-04-24 13:04 -23.50056 172.94984 38114 ft 475 kts 225°
2026-04-24 13:04 -23.55379 172.90722 38116 ft 475 kts 225°
2026-04-24 13:05 -23.60674 172.86477 38127 ft 475 kts 226°
2026-04-24 13:05 -23.65983 172.82220 38119 ft 473 kts 226°
2026-04-24 13:06 -23.71283 172.77963 38126 ft 473 kts 226°
2026-04-24 13:06 -23.76577 172.73704 38130 ft 473 kts 226°
2026-04-24 13:07 -23.81874 172.69440 38126 ft 473 kts 226°
2026-04-24 13:07 -23.87169 172.65173 38122 ft 473 kts 226°
2026-04-24 13:08 -23.92459 172.60907 38126 ft 472 kts 226°
2026-04-24 13:08 -23.97732 172.56651 38138 ft 471 kts 226°
2026-04-24 13:09 -24.04748 172.50978 38134 ft 471 kts 226°
2026-04-24 13:09 -24.10017 172.46712 38141 ft 471 kts 226°
2026-04-24 13:10 -24.15281 172.42447 38137 ft 471 kts 226°
2026-04-24 13:10 -24.20547 172.38177 38161 ft 470 kts 227°
2026-04-24 13:11 -24.25787 172.33925 38139 ft 467 kts 227°
2026-04-24 13:11 -24.31011 172.29679 38137 ft 467 kts 227°
2026-04-24 13:12 -24.36224 172.25435 38146 ft 467 kts 227°
2026-04-24 13:12 -24.41438 172.21186 38144 ft 467 kts 227°
2026-04-24 13:13 -24.46653 172.16934 38147 ft 467 kts 227°
2026-04-24 13:13 -24.51860 172.12684 38147 ft 467 kts 227°
2026-04-24 13:14 -24.57072 172.08426 38156 ft 467 kts 227°
2026-04-24 13:14 -24.62280 172.04166 38156 ft 467 kts 227°
2026-04-24 13:15 -24.67452 171.99931 38154 ft 466 kts 227°
2026-04-24 13:15 -24.72653 171.95668 38154 ft 466 kts 227°
2026-04-24 13:16 -24.77849 171.91405 38154 ft 466 kts 227°
2026-04-24 13:16 -24.83044 171.87137 38157 ft 465 kts 228°
2026-04-24 13:17 -24.88229 171.82875 38156 ft 465 kts 228°
2026-04-24 13:17 -24.93409 171.78610 38165 ft 465 kts 228°
2026-04-24 13:18 -24.98585 171.74344 38165 ft 465 kts 228°
2026-04-24 13:18 -25.03705 171.70016 38168 ft 462 kts 230°
2026-04-24 13:19 -25.08654 171.65526 38177 ft 460 kts 231°
2026-04-24 13:19 -25.13594 171.61012 38168 ft 462 kts 231°
2026-04-24 13:20 -25.18575 171.56504 38170 ft 464 kts 231°
2026-04-24 13:20 -25.23578 171.52005 38170 ft 464 kts 230°
2026-04-24 13:21 -25.28583 171.47504 38176 ft 464 kts 231°
2026-04-24 13:21 -25.33586 171.42996 38175 ft 464 kts 231°
2026-04-24 13:22 -25.38585 171.38486 38176 ft 464 kts 231°
2026-04-24 13:22 -25.43581 171.33973 38183 ft 464 kts 231°
2026-04-24 13:23 -25.48573 171.29458 38179 ft 463 kts 231°
2026-04-24 13:23 -25.53565 171.24938 38180 ft 464 kts 231°
2026-04-24 13:24 -25.58560 171.20409 38177 ft 464 kts 231°
2026-04-24 13:24 -25.63557 171.15875 38189 ft 464 kts 231°
2026-04-24 13:25 -25.68556 171.11335 38211 ft 464 kts 232°
2026-04-24 13:25 -25.73546 171.06798 38183 ft 463 kts 232°
2026-04-24 13:26 -25.78525 171.02265 38193 ft 463 kts 232°
2026-04-24 13:26 -25.83506 170.97724 38193 ft 463 kts 232°
2026-04-24 13:27 -25.88450 170.93212 38192 ft 463 kts 232°
2026-04-24 13:27 -25.93459 170.88636 38197 ft 463 kts 232°
2026-04-24 13:28 -25.98408 170.84107 38214 ft 464 kts 233°
2026-04-24 13:28 -26.03390 170.79549 38191 ft 463 kts 233°
2026-04-24 13:29 -26.08354 170.75000 38201 ft 462 kts 233°
2026-04-24 13:29 -26.13315 170.70446 38199 ft 462 kts 233°
2026-04-24 13:30 -26.18276 170.65887 38204 ft 462 kts 233°
2026-04-24 13:30 -26.23234 170.61326 38202 ft 462 kts 233°
2026-04-24 13:31 -26.28187 170.56766 38204 ft 462 kts 233°
2026-04-24 13:31 -26.33134 170.52208 38211 ft 461 kts 233°
2026-04-24 13:32 -26.38076 170.47644 38210 ft 462 kts 233°
2026-04-24 13:32 -26.43023 170.43071 38204 ft 462 kts 233°
2026-04-24 13:33 -26.47971 170.38495 38202 ft 462 kts 233°
2026-04-24 13:33 -26.52917 170.33915 38201 ft 462 kts 233°
2026-04-24 13:34 -26.57859 170.29334 38208 ft 461 kts 233°
2026-04-24 13:34 -26.62789 170.24759 38208 ft 460 kts 233°
2026-04-24 13:35 -26.67710 170.20185 38211 ft 460 kts 234°
2026-04-24 13:35 -26.72596 170.15637 38218 ft 460 kts 234°
2026-04-24 13:36 -26.77512 170.11057 38216 ft 460 kts 234°
2026-04-24 13:36 -26.82431 170.06470 38257 ft 460 kts 234°
2026-04-24 13:37 -26.87338 170.01892 38216 ft 457 kts 234°
2026-04-24 13:37 -26.92215 169.97337 38220 ft 456 kts 234°
2026-04-24 13:38 -26.97082 169.92778 38218 ft 456 kts 234°
2026-04-24 13:38 -27.01950 169.88213 38223 ft 456 kts 234°
2026-04-24 13:39 -27.06814 169.83650 38224 ft 456 kts 234°
2026-04-24 13:39 -27.11685 169.79075 38252 ft 456 kts 234°
2026-04-24 13:40 -27.16534 169.74521 38228 ft 453 kts 234°
2026-04-24 13:40 -27.21369 169.69971 38219 ft 453 kts 234°
2026-04-24 13:41 -27.26192 169.65421 38228 ft 453 kts 234°
2026-04-24 13:41 -27.31017 169.60866 38228 ft 453 kts 234°
2026-04-24 13:42 -27.35837 169.56313 38234 ft 453 kts 234°
2026-04-24 13:42 -27.40656 169.51755 38233 ft 453 kts 234°
2026-04-24 13:43 -27.45440 169.47226 38236 ft 452 kts 234°
2026-04-24 13:43 -27.50256 169.42660 38236 ft 453 kts 234°
2026-04-24 13:44 -27.55084 169.38071 38236 ft 456 kts 234°
2026-04-24 13:44 -27.59945 169.33448 38235 ft 458 kts 234°
2026-04-24 13:45 -27.64819 169.28816 38252 ft 458 kts 234°
2026-04-24 13:45 -27.69689 169.24180 38241 ft 459 kts 234°
2026-04-24 13:46 -27.74571 169.19522 38241 ft 460 kts 234°
2026-04-24 13:46 -27.79463 169.14852 38243 ft 460 kts 234°
2026-04-24 13:47 -27.84349 169.10183 38243 ft 460 kts 234°
2026-04-24 13:47 -27.89230 169.05511 38252 ft 460 kts 234°
2026-04-24 13:48 -27.94113 169.00832 38268 ft 460 kts 234°
2026-04-24 13:48 -27.98984 168.96159 38255 ft 459 kts 235°
2026-04-24 13:49 -28.03845 168.91489 38251 ft 458 kts 235°
2026-04-24 13:49 -28.08703 168.86814 38252 ft 458 kts 235°
2026-04-24 13:50 -28.13564 168.82132 38257 ft 458 kts 235°
2026-04-24 13:50 -28.18414 168.77455 38257 ft 458 kts 235°
2026-04-24 13:51 -28.23267 168.72771 38262 ft 457 kts 235°
2026-04-24 13:51 -28.28067 168.68135 38270 ft 456 kts 236°
2026-04-24 13:52 -28.32877 168.63480 38265 ft 454 kts 236°
2026-04-24 13:52 -28.37676 168.58827 38265 ft 453 kts 236°
2026-04-24 13:53 -28.42470 168.54172 38271 ft 453 kts 236°
2026-04-24 13:53 -28.47265 168.49513 38309 ft 454 kts 236°
2026-04-24 13:54 -28.52057 168.44852 38268 ft 454 kts 236°
2026-04-24 13:54 -28.56853 168.40181 38270 ft 454 kts 236°
2026-04-24 13:55 -28.61648 168.35506 38276 ft 454 kts 236°
2026-04-24 13:55 -28.66437 168.30830 38278 ft 454 kts 236°
2026-04-24 13:56 -28.71253 168.26112 38276 ft 459 kts 236°
2026-04-24 13:56 -28.75285 168.22164 38288 ft 460 kts 237°
2026-04-24 13:57 -28.80139 168.17419 38281 ft 458 kts 237°
2026-04-24 13:57 -28.85755 168.11914 38298 ft 458 kts 237°
2026-04-24 13:58 -28.89800 168.07939 38305 ft 458 kts 237°
2026-04-24 13:58 -28.94624 168.03193 38315 ft 458 kts 237°
2026-04-24 13:59 -28.99456 167.98434 38319 ft 458 kts 237°
2026-04-24 13:59 -29.01802 167.96012 38320 ft 447 kts 243°
2026-04-24 13:59 -29.03791 167.93387 38321 ft 427 kts 251°
2026-04-24 14:00 -29.05347 167.90587 38316 ft 409 kts 259°
2026-04-24 14:00 -29.06497 167.87678 38316 ft 397 kts 264°
2026-04-24 14:00 -29.08422 167.81804 38319 ft 393 kts 266°
2026-04-24 14:01 -29.10224 167.75912 38285 ft 393 kts 266°
2026-04-24 14:01 -29.12037 167.70010 38288 ft 394 kts 266°
2026-04-24 14:02 -29.13862 167.64148 38289 ft 394 kts 266°
2026-04-24 14:02 -29.15706 167.58247 38305 ft 394 kts 266°
2026-04-24 14:03 -29.17551 167.52336 38289 ft 395 kts 266°
2026-04-24 14:03 -29.19394 167.46414 38289 ft 395 kts 266°
2026-04-24 14:04 -29.21237 167.40486 38294 ft 395 kts 266°
2026-04-24 14:04 -29.23076 167.34559 38310 ft 395 kts 267°
2026-04-24 14:05 -29.24908 167.28661 38295 ft 391 kts 267°
2026-04-24 14:05 -29.26722 167.22793 38290 ft 390 kts 267°
2026-04-24 14:06 -29.28527 167.16927 38294 ft 391 kts 267°
2026-04-24 14:06 -29.30336 167.11045 38291 ft 392 kts 267°
2026-04-24 14:07 -29.32144 167.05163 38297 ft 391 kts 267°
2026-04-24 14:07 -29.33952 166.99278 38297 ft 391 kts 267°
2026-04-24 14:08 -29.35754 166.93395 38299 ft 391 kts 267°
2026-04-24 14:08 -29.37555 166.87505 38304 ft 391 kts 267°
2026-04-24 14:09 -29.39351 166.81623 38302 ft 390 kts 267°
2026-04-24 14:09 -29.41128 166.75796 38308 ft 389 kts 268°
2026-04-24 14:10 -29.42923 166.69892 38297 ft 389 kts 268°
2026-04-24 14:10 -29.44689 166.64069 38300 ft 389 kts 268°
2026-04-24 14:11 -29.46462 166.58240 38298 ft 385 kts 268°
2026-04-24 14:12 -29.49088 166.49545 38318 ft 384 kts 268°
2026-04-24 14:12 -29.50835 166.43738 38307 ft 386 kts 268°
2026-04-24 14:13 -29.52588 166.37911 38302 ft 386 kts 268°
2026-04-24 14:13 -29.54342 166.32083 38315 ft 386 kts 268°
2026-04-24 14:14 -29.56094 166.26250 38301 ft 386 kts 268°
2026-04-24 14:14 -29.58712 166.17508 38308 ft 386 kts 268°
2026-04-24 14:15 -29.60454 166.11674 38311 ft 386 kts 268°
2026-04-24 14:15 -29.62183 166.05874 38310 ft 386 kts 268°
2026-04-24 14:16 -29.63924 166.00026 38308 ft 386 kts 268°
2026-04-24 14:17 -29.66527 165.91273 38311 ft 384 kts 268°
2026-04-24 14:17 -29.69110 165.82560 38311 ft 383 kts 268°
2026-04-24 14:18 -29.70823 165.76752 38318 ft 384 kts 268°
2026-04-24 14:18 -29.72537 165.70929 38314 ft 385 kts 268°
2026-04-24 14:19 -29.74258 165.65080 38313 ft 386 kts 268°
2026-04-24 14:19 -29.75978 165.59236 38315 ft 386 kts 268°
2026-04-24 14:20 -29.77695 165.53386 38312 ft 385 kts 268°
2026-04-24 14:20 -29.79406 165.47543 38315 ft 385 kts 268°
2026-04-24 14:21 -29.81115 165.41694 38320 ft 385 kts 268°
2026-04-24 14:21 -29.82823 165.35840 38318 ft 385 kts 268°
2026-04-24 14:22 -29.84527 165.29990 38318 ft 385 kts 268°
2026-04-24 14:23 -29.87079 165.21207 38320 ft 385 kts 268°
2026-04-24 14:23 -29.88775 165.15353 38318 ft 385 kts 268°
2026-04-24 14:24 -29.90459 165.09532 38326 ft 385 kts 268°
2026-04-24 14:24 -29.92151 165.03667 38326 ft 387 kts 268°
2026-04-24 14:25 -29.93849 164.97766 38321 ft 388 kts 268°
2026-04-24 14:25 -29.95547 164.91877 38324 ft 386 kts 268°
2026-04-24 14:26 -29.97237 164.85999 38322 ft 386 kts 268°
2026-04-24 14:26 -29.98923 164.80113 38322 ft 386 kts 268°
2026-04-24 14:27 -30.00605 164.74231 38325 ft 386 kts 268°
2026-04-24 14:27 -30.02284 164.68346 38327 ft 387 kts 268°
2026-04-24 14:28 -30.03969 164.62412 38324 ft 390 kts 267°
2026-04-24 14:28 -30.05666 164.56450 38325 ft 391 kts 266°
2026-04-24 14:29 -30.07364 164.50483 38325 ft 391 kts 266°
2026-04-24 14:29 -30.09055 164.44521 38325 ft 391 kts 266°
2026-04-24 14:30 -30.10457 164.39563 38327 ft 391 kts 266°
2026-04-24 14:30 -30.12416 164.32617 38336 ft 392 kts 265°
2026-04-24 14:31 -30.14111 164.26577 38327 ft 397 kts 265°
2026-04-24 14:31 -30.15819 164.20509 38327 ft 398 kts 265°
2026-04-24 14:32 -30.17529 164.14430 38330 ft 398 kts 265°
2026-04-24 14:32 -30.19234 164.08349 38329 ft 397 kts 265°
2026-04-24 14:33 -30.20932 164.02273 38324 ft 397 kts 265°
2026-04-24 14:33 -30.22629 163.96182 38330 ft 399 kts 264°
2026-04-24 14:34 -30.24334 163.90039 38347 ft 402 kts 263°
2026-04-24 14:34 -30.26048 163.83874 38332 ft 403 kts 263°
2026-04-24 14:35 -30.27764 163.77696 38338 ft 403 kts 263°
2026-04-24 14:35 -30.29473 163.71523 38335 ft 403 kts 263°
2026-04-24 14:36 -30.31180 163.65342 38333 ft 403 kts 263°
2026-04-24 14:36 -30.32884 163.59148 38340 ft 405 kts 263°
2026-04-24 14:37 -30.34596 163.52915 38328 ft 407 kts 263°
2026-04-24 14:37 -30.36310 163.46674 38340 ft 407 kts 263°
2026-04-24 14:38 -30.38022 163.40428 38334 ft 407 kts 263°
2026-04-24 14:38 -30.39729 163.34184 38331 ft 407 kts 263°
2026-04-24 14:39 -30.41431 163.27939 38344 ft 407 kts 262°
2026-04-24 14:39 -30.43125 163.21703 38345 ft 410 kts 262°
2026-04-24 14:40 -30.44837 163.15400 38337 ft 410 kts 262°
2026-04-24 14:40 -30.46547 163.09096 38334 ft 410 kts 262°
2026-04-24 14:41 -30.48253 163.02792 38337 ft 410 kts 262°
2026-04-24 14:41 -30.49967 162.96492 38347 ft 410 kts 262°
2026-04-24 14:42 -30.51446 162.91254 38346 ft 412 kts 261°
2026-04-24 14:42 -30.53549 162.83849 38344 ft 414 kts 261°
2026-04-24 14:43 -30.55340 162.77500 38341 ft 414 kts 261°
2026-04-24 14:43 -30.57121 162.71154 38345 ft 414 kts 261°
2026-04-24 14:44 -30.58901 162.64790 38343 ft 414 kts 261°
2026-04-24 14:44 -30.60375 162.59508 38371 ft 414 kts 260°
2026-04-24 14:45 -30.62150 162.53125 38350 ft 417 kts 260°
2026-04-24 14:45 -30.63937 162.46693 38348 ft 419 kts 259°
2026-04-24 14:46 -30.65724 162.40257 38349 ft 419 kts 259°
2026-04-24 14:46 -30.67509 162.33816 38349 ft 419 kts 260°
2026-04-24 14:47 -30.69290 162.27371 38345 ft 419 kts 260°
2026-04-24 14:47 -30.71067 162.20918 38350 ft 420 kts 259°
2026-04-24 14:48 -30.72852 162.14422 38346 ft 422 kts 259°
2026-04-24 14:48 -30.74638 162.07915 38346 ft 423 kts 259°
2026-04-24 14:49 -30.76422 162.01407 38348 ft 423 kts 259°
2026-04-24 14:49 -30.78201 161.94896 38346 ft 422 kts 259°
2026-04-24 14:50 -30.79966 161.88420 38346 ft 424 kts 259°
2026-04-24 14:50 -30.81745 161.81878 38351 ft 425 kts 259°
2026-04-24 14:51 -30.83523 161.75328 38347 ft 425 kts 259°
2026-04-24 14:51 -30.85299 161.68772 38353 ft 425 kts 259°
2026-04-24 14:52 -30.87071 161.62215 38354 ft 424 kts 259°
2026-04-24 14:52 -30.88838 161.55660 38367 ft 425 kts 259°
2026-04-24 14:53 -30.90606 161.49084 38352 ft 427 kts 259°
2026-04-24 14:53 -30.92377 161.42485 38351 ft 427 kts 259°
2026-04-24 14:54 -30.94147 161.35878 38360 ft 427 kts 259°
2026-04-24 14:54 -30.95913 161.29270 38377 ft 427 kts 259°
2026-04-24 14:55 -30.97677 161.22648 38359 ft 429 kts 258°
2026-04-24 14:55 -30.99448 161.15985 38359 ft 432 kts 258°
2026-04-24 14:56 -31.01224 161.09292 38361 ft 432 kts 258°
2026-04-24 14:56 -31.02999 161.02592 38360 ft 432 kts 258°
2026-04-24 14:57 -31.04770 160.95892 38360 ft 432 kts 258°
2026-04-24 14:57 -31.06534 160.89195 38363 ft 432 kts 258°
2026-04-24 14:58 -31.08299 160.82478 38368 ft 434 kts 258°
2026-04-24 14:58 -31.10069 160.75729 38365 ft 435 kts 258°
2026-04-24 14:59 -31.11839 160.68967 38365 ft 436 kts 258°
2026-04-24 14:59 -31.13594 160.62245 38372 ft 436 kts 257°
2026-04-24 15:00 -31.15359 160.55463 38370 ft 437 kts 257°
2026-04-24 15:00 -31.17126 160.48662 38374 ft 439 kts 257°
2026-04-24 15:01 -31.18897 160.41830 38373 ft 440 kts 257°
2026-04-24 15:01 -31.20667 160.34985 38373 ft 440 kts 257°
2026-04-24 15:02 -31.22435 160.28133 38371 ft 440 kts 257°
2026-04-24 15:02 -31.24198 160.21281 38371 ft 440 kts 257°
2026-04-24 15:03 -31.25958 160.14424 38379 ft 441 kts 257°
2026-04-24 15:03 -31.27718 160.07549 38378 ft 442 kts 257°
2026-04-24 15:04 -31.29477 160.00661 38381 ft 442 kts 256°
2026-04-24 15:04 -31.31225 159.93802 38379 ft 444 kts 256°
2026-04-24 15:05 -31.32986 159.86873 38381 ft 444 kts 256°
2026-04-24 15:05 -31.34743 159.79943 38381 ft 445 kts 256°
2026-04-24 15:06 -31.36503 159.72983 38381 ft 446 kts 256°
2026-04-24 15:06 -31.38259 159.66023 38381 ft 446 kts 256°
2026-04-24 15:07 -31.40011 159.59060 38385 ft 446 kts 256°
2026-04-24 15:07 -31.41759 159.52095 38392 ft 446 kts 256°
2026-04-24 15:08 -31.43505 159.45123 38385 ft 446 kts 256°
2026-04-24 15:08 -31.45247 159.38143 38385 ft 446 kts 256°
2026-04-24 15:09 -31.46990 159.31148 38394 ft 447 kts 256°
2026-04-24 15:09 -31.48729 159.24145 38399 ft 448 kts 256°
2026-04-24 15:10 -31.50466 159.17136 38404 ft 448 kts 256°
2026-04-24 15:10 -31.52202 159.10120 38393 ft 449 kts 256°
2026-04-24 15:11 -31.54599 159.03342 38396 ft 452 kts 246°
2026-04-24 15:11 -31.57359 158.96777 38410 ft 452 kts 245°
2026-04-24 15:12 -31.60195 158.90193 38402 ft 452 kts 245°
2026-04-24 15:12 -31.64435 158.80302 38395 ft 452 kts 245°
2026-04-24 15:13 -31.67248 158.73691 38402 ft 453 kts 245°
2026-04-24 15:13 -31.70056 158.67076 38397 ft 453 kts 246°
2026-04-24 15:14 -31.72862 158.60454 38402 ft 453 kts 246°
2026-04-24 15:14 -31.75662 158.53833 38391 ft 453 kts 246°
2026-04-24 15:15 -31.78460 158.47208 38403 ft 453 kts 246°
2026-04-24 15:15 -31.81256 158.40574 38401 ft 453 kts 246°
2026-04-24 15:16 -31.84053 158.33925 38397 ft 454 kts 246°
2026-04-24 15:16 -31.86848 158.27268 38403 ft 454 kts 246°
2026-04-24 15:17 -31.89640 158.20608 38406 ft 454 kts 246°
2026-04-24 15:17 -31.92431 158.13935 38408 ft 455 kts 245°
2026-04-24 15:18 -31.95203 158.07296 38405 ft 455 kts 245°
2026-04-24 15:18 -31.97994 158.00599 38413 ft 455 kts 246°
2026-04-24 15:19 -32.00784 157.93893 38409 ft 456 kts 245°
2026-04-24 15:19 -32.03578 157.87164 38416 ft 457 kts 245°
2026-04-24 15:20 -32.06369 157.80430 38409 ft 458 kts 245°
2026-04-24 15:20 -32.09163 157.73678 38421 ft 458 kts 245°
2026-04-24 15:21 -32.11952 157.66922 38416 ft 458 kts 245°
2026-04-24 15:21 -32.14737 157.60165 38417 ft 458 kts 245°
2026-04-24 15:22 -32.17520 157.53398 38418 ft 459 kts 244°
2026-04-24 15:23 -32.21704 157.43203 38416 ft 460 kts 244°
2026-04-24 15:23 -32.25884 157.32988 38417 ft 460 kts 244°
2026-04-24 15:25 -32.32364 157.17094 38425 ft 460 kts 244°
2026-04-24 15:26 -32.39767 156.98849 38427 ft 463 kts 243°
2026-04-24 15:27 -32.48091 156.78217 38433 ft 463 kts 243°
2026-04-24 15:29 -32.56384 156.57544 38431 ft 463 kts 242°
2026-04-24 15:31 -32.65537 156.34581 38432 ft 462 kts 243°
2026-04-24 15:33 -32.76889 156.05888 38449 ft 460 kts 242°
2026-04-24 15:34 -32.83210 155.89809 38435 ft 460 kts 242°
2026-04-24 15:35 -32.89957 155.72558 38441 ft 460 kts 242°
2026-04-24 15:36 -32.92648 155.65656 38441 ft 460 kts 242°
2026-04-24 15:36 -32.96678 155.55290 38444 ft 460 kts 242°
2026-04-24 15:37 -32.99358 155.48380 38437 ft 459 kts 242°
2026-04-24 15:37 -33.02032 155.41472 38444 ft 460 kts 242°
2026-04-24 15:38 -33.04708 155.34545 38443 ft 460 kts 242°
2026-04-24 15:38 -33.07362 155.27660 38444 ft 460 kts 242°
2026-04-24 15:39 -33.10029 155.20726 38444 ft 460 kts 242°
2026-04-24 15:39 -33.12692 155.13791 38444 ft 460 kts 243°
2026-04-24 15:40 -33.15350 155.06854 38442 ft 460 kts 243°
2026-04-24 15:40 -33.18018 154.99900 38447 ft 461 kts 242°
2026-04-24 15:41 -33.20687 154.92953 38445 ft 460 kts 242°
2026-04-24 15:41 -33.23347 154.86012 38446 ft 459 kts 242°
2026-04-24 15:42 -33.26003 154.79068 38446 ft 459 kts 242°
2026-04-24 15:42 -33.28656 154.72118 38449 ft 460 kts 243°
2026-04-24 15:43 -33.31303 154.65167 38444 ft 459 kts 242°
2026-04-24 15:43 -33.33945 154.58215 38450 ft 459 kts 242°
2026-04-24 15:44 -33.36579 154.51269 38452 ft 459 kts 242°
2026-04-24 15:44 -33.39195 154.44357 38450 ft 459 kts 243°
2026-04-24 15:45 -33.41823 154.37399 38455 ft 459 kts 243°
2026-04-24 15:45 -33.44445 154.30442 38446 ft 458 kts 242°
2026-04-24 15:46 -33.47063 154.23484 38449 ft 458 kts 242°
2026-04-24 15:46 -33.49679 154.16515 38449 ft 459 kts 242°
2026-04-24 15:47 -33.52292 154.09539 38449 ft 459 kts 242°
2026-04-24 15:47 -33.54900 154.02559 38446 ft 459 kts 242°
2026-04-24 15:48 -33.57503 153.95580 38452 ft 458 kts 242°
2026-04-24 15:48 -33.60100 153.88604 38452 ft 458 kts 242°
2026-04-24 15:49 -33.62696 153.81615 38449 ft 459 kts 242°
2026-04-24 15:49 -33.65289 153.74619 38438 ft 459 kts 242°
2026-04-24 15:50 -33.66586 153.71112 38171 ft 460 kts 242°
2026-04-24 15:50 -33.67889 153.67591 37888 ft 462 kts 242°
2026-04-24 15:50 -33.69193 153.64061 37623 ft 463 kts 242°
2026-04-24 15:50 -33.70498 153.60523 37355 ft 463 kts 242°
2026-04-24 15:51 -33.71802 153.56983 37089 ft 464 kts 242°
2026-04-24 15:51 -33.73106 153.53438 36836 ft 464 kts 242°
2026-04-24 15:51 -33.74409 153.49893 36587 ft 464 kts 242°
2026-04-24 15:51 -33.75713 153.46344 36321 ft 465 kts 242°
2026-04-24 15:52 -33.77002 153.42831 36052 ft 466 kts 241°
2026-04-24 15:52 -33.78308 153.39266 35721 ft 466 kts 241°
2026-04-24 15:52 -33.79612 153.35704 35140 ft 466 kts 241°
2026-04-24 15:52 -33.80924 153.32118 34475 ft 469 kts 241°
2026-04-24 15:53 -33.82239 153.28520 33719 ft 471 kts 242°
2026-04-24 15:53 -33.83558 153.24910 32994 ft 472 kts 242°
2026-04-24 15:53 -33.84875 153.21295 32263 ft 473 kts 242°
2026-04-24 15:53 -33.86195 153.17669 31644 ft 472 kts 243°
2026-04-24 15:54 -33.87503 153.14069 31172 ft 467 kts 243°
2026-04-24 15:54 -33.88793 153.10510 30672 ft 463 kts 243°
2026-04-24 15:54 -33.90076 153.06971 30118 ft 459 kts 243°
2026-04-24 15:54 -33.91343 153.03470 29599 ft 454 kts 243°
2026-04-24 15:55 -33.92596 153.00006 29104 ft 449 kts 243°
2026-04-24 15:55 -33.93835 152.96575 28592 ft 445 kts 243°
2026-04-24 15:55 -33.95065 152.93172 28083 ft 441 kts 243°
2026-04-24 15:55 -33.96281 152.89802 27597 ft 437 kts 243°
2026-04-24 15:56 -33.97487 152.86457 27105 ft 433 kts 244°
2026-04-24 15:56 -33.98680 152.83144 26598 ft 430 kts 244°
2026-04-24 15:56 -33.99867 152.79844 26104 ft 427 kts 244°
2026-04-24 15:56 -34.01045 152.76568 25606 ft 425 kts 244°
2026-04-24 15:57 -34.02214 152.73314 25127 ft 422 kts 244°
2026-04-24 15:57 -34.03375 152.70080 24623 ft 419 kts 244°
2026-04-24 15:57 -34.04529 152.66862 24138 ft 417 kts 244°
2026-04-24 15:57 -34.05676 152.63659 23590 ft 414 kts 244°
2026-04-24 15:58 -34.06810 152.60482 23116 ft 410 kts 244°
2026-04-24 15:58 -34.07655 152.57210 22668 ft 409 kts 257°
2026-04-24 15:58 -34.07831 152.53804 22210 ft 407 kts 271°
2026-04-24 15:58 -34.07610 152.50408 21715 ft 405 kts 274°
2026-04-24 15:59 -34.07313 152.47042 21253 ft 402 kts 275°
2026-04-24 15:59 -34.07005 152.43706 20774 ft 399 kts 275°
2026-04-24 15:59 -34.06695 152.40393 20289 ft 396 kts 275°
2026-04-24 15:59 -34.06384 152.37099 19838 ft 394 kts 275°
2026-04-24 16:00 -34.06079 152.33873 19380 ft 392 kts 275°
2026-04-24 16:00 -34.05770 152.30617 18921 ft 389 kts 275°
2026-04-24 16:00 -34.05462 152.27379 18426 ft 387 kts 275°
2026-04-24 16:00 -34.05154 152.24166 17942 ft 384 kts 275°
2026-04-24 16:01 -34.04848 152.20978 17486 ft 381 kts 275°
2026-04-24 16:01 -34.04544 152.17814 17026 ft 379 kts 275°
2026-04-24 16:01 -34.04241 152.14667 16567 ft 377 kts 275°
2026-04-24 16:01 -34.03939 152.11543 16099 ft 375 kts 275°
2026-04-24 16:02 -34.03637 152.08428 15657 ft 373 kts 275°
2026-04-24 16:02 -34.03336 152.05335 15211 ft 371 kts 276°
2026-04-24 16:02 -34.03029 152.02254 14775 ft 369 kts 276°
2026-04-24 16:02 -34.02786 151.99195 14439 ft 364 kts 270°
2026-04-24 16:03 -34.02973 151.96160 14006 ft 360 kts 259°
2026-04-24 16:03 -34.03471 151.93256 13813 ft 346 kts 254°
2026-04-24 16:03 -34.04093 151.90541 13439 ft 325 kts 251°
2026-04-24 16:03 -34.04761 151.87970 12861 ft 320 kts 250°
2026-04-24 16:04 -34.05451 151.85436 12529 ft 315 kts 250°
2026-04-24 16:04 -34.06126 151.82956 12057 ft 306 kts 251°
2026-04-24 16:04 -34.06776 151.80529 11311 ft 303 kts 251°
2026-04-24 16:04 -34.07400 151.78104 10644 ft 302 kts 253°
2026-04-24 16:05 -34.08333 151.73232 9825 ft 300 kts 258°
2026-04-24 16:05 -34.08743 151.70741 9504 ft 297 kts 258°
2026-04-24 16:06 -34.09551 151.65920 8882 ft 294 kts 258°
2026-04-24 16:06 -34.09971 151.63516 8567 ft 292 kts 258°
2026-04-24 16:06 -34.10832 151.58755 7961 ft 289 kts 258°
2026-04-24 16:07 -34.11264 151.56392 7655 ft 287 kts 258°
2026-04-24 16:07 -34.11689 151.54045 7347 ft 286 kts 258°
2026-04-24 16:07 -34.12525 151.49417 6698 ft 279 kts 258°
2026-04-24 16:08 -34.12935 151.47142 6269 ft 276 kts 258°
2026-04-24 16:08 -34.13794 151.42774 5423 ft 256 kts 253°
2026-04-24 16:09 -34.14850 151.38684 4618 ft 258 kts 253°
2026-04-24 16:09 -34.15388 151.36632 4371 ft 254 kts 253°
2026-04-24 16:09 -34.15747 151.35269 4257 ft 250 kts 253°
2026-04-24 16:09 -34.16428 151.32658 4062 ft 241 kts 253°
2026-04-24 16:10 -34.14843 151.27460 3698 ft 229 kts 313°
2026-04-24 16:11 -34.12780 151.24646 3281 ft 223 kts 313°
2026-04-24 16:11 -34.11636 151.23413 2958 ft 217 kts 329°
2026-04-24 16:11 -34.10273 151.22766 2692 ft 207 kts 349°
2026-04-24 16:12 -34.07476 151.22100 2147 ft 201 kts 347°
2026-04-24 16:12 -34.06138 151.21738 1854 ft 192 kts 348°
2026-04-24 16:12 -34.03711 151.21109 1379 ft 163 kts 347°
2026-04-24 16:13 -34.02648 151.20831 1161 ft 149 kts 347°
2026-04-24 16:13 -34.00758 151.20337 773 ft 132 kts 347°
2026-04-24 16:14 -33.98992 151.19878 414 ft 129 kts 347°
2026-04-24 16:14 -33.98115 151.19653 281 ft 128 kts 348°
2026-04-24 16:14 -33.96413 151.19199 29 ft 109 kts 348°
2026-04-24 16:15 -33.95999 151.19095 32 ft 75 kts 348°
2026-04-24 16:15 -33.95275 151.18831 30 ft 30 kts 324°
2026-04-24 16:16 -33.95088 151.18576 34 ft 14 kts 265°
2026-04-24 16:16 -33.95111 151.18456 34 ft 15 kts 257°
2026-04-24 16:17 -33.95190 151.17997 34 ft 8 kts 265°
2026-04-24 16:17 -33.95134 151.17951 34 ft 9 kts 347°
2026-04-24 16:18 -33.94903 151.17892 34 ft 24 kts 348°
2026-04-24 16:18 -33.94527 151.17794 34 ft 28 kts 346°
2026-04-24 16:18 -33.94336 151.17737 34 ft 28 kts 346°
2026-04-24 16:19 -33.94233 151.17668 33 ft 10 kts 270°
2026-04-24 16:19 -33.94256 151.17569 34 ft 15 kts 253°
2026-04-24 16:20 -33.94278 151.17313 34 ft 12 kts 322°
2026-04-24 16:20 -33.94083 151.17251 33 ft 16 kts 348°
2026-04-24 16:20 -33.93989 151.17213 33 ft 11 kts 304°
2026-04-24 16:21 -33.94017 151.17024 34 ft 13 kts 252°
2026-04-24 16:21 -33.94045 151.16912 34 ft 15 kts 253°
2026-04-24 16:21 -33.94052 151.16823 34 ft 6 kts 297°
2026-04-24 16:22 -33.94013 151.16802 34 ft 7 kts 347°
2026-04-24 16:22 -33.93964 151.16837 34 ft 6 kts 75°
2026-04-24 16:22 -33.93954 151.16884 34 ft 1 kts 75°
2026-04-24 16:23 -33.93951 151.16896 34 ft 0 kts 75°